Home   Weather   Cleveland   Past weeks

Flag for USA Past Weather in Cleveland, Ohio, USA — Yesterday and Last 2 Weeks

Now
39 °F

Partly sunny.


Feels Like: 34 °F
Forecast: 34 / 44 °F
Wind: 7 mph from South

Location: Cleveland-Hopkins International Airport

Current Time: Dec 4, 2016 at 11:18:19 am

Latest Report: Dec 4, 2016 at 10:51 am


Visibility: 10 mi

Pressure: 30.26 "Hg

Humidity: 57%

Dew Point: 25 °F

Location of ClevelandLocation

Past Weather in Cleveland — Graph

°F

Cleveland Temperature Yesterday

Maximum temperature yesterday: 40 °F (at 12:51 pm)
Minimum temperature yesterday: 37 °F (at 6:51 am)
Average temperature yesterday: 38 °F

High & Low Weather Summary for the Past Weeks

 TemperatureHumidityPressure
High62 °F (Nov 30, 3:51 am)90% (Nov 24, 7:51 am)30.40 "Hg (Nov 24, 7:51 am)
Low26 °F (Nov 23, 2:51 am)31% (Nov 28, 7:51 pm)29.51 "Hg (Nov 29, 1:51 am)
Average41 °F67%30.09 "Hg
* Reported Nov 19 9:51 am — Dec 4 9:51 am, Cleveland, Weather by CustomWeather, © 2016

Note: Actual official high and low records may vary slightly from our data, if they occured in-between our weather recording intervals... More about our weather records

Advertising

Cleveland Weather History for the Previous 24 Hours

Scroll right to see more
 ConditionsComfort  
Time TempWeatherWind HumidityBarometerVisibility
9:51 am
Sun, Dec 4
38 °FPartly sunny.3 mph58%30.28 "Hg10 mi
8:51 am37 °FBroken clouds.5 mph65%30.28 "Hg10 mi
7:51 am35 °FMostly cloudy.No wind67%30.29 "Hg10 mi
6:51 am35 °FMostly cloudy.3 mph67%30.29 "Hg10 mi
5:51 am35 °FMostly cloudy.3 mph70%30.29 "Hg10 mi
4:51 am37 °FOvercast.5 mph65%30.31 "Hg10 mi
3:51 am36 °FOvercast.5 mph70%30.30 "Hg10 mi
2:51 am37 °FOvercast.5 mph62%30.33 "Hg10 mi
1:51 am37 °FOvercast.3 mph65%30.33 "Hg10 mi
12:51 am37 °FOvercast.5 mph65%30.33 "Hg10 mi
11:51 pm
Sat, Dec 3
37 °FOvercast.5 mph65%30.33 "Hg10 mi
10:51 pm38 °FOvercast.7 mph60%30.34 "Hg10 mi
9:51 pm38 °FOvercast.7 mph63%30.34 "Hg10 mi
8:51 pm38 °FOvercast.5 mph63%30.33 "Hg10 mi
7:51 pm38 °FOvercast.6 mph63%30.33 "Hg10 mi
6:51 pm39 °FOvercast.9 mph60%30.34 "Hg10 mi
5:51 pm39 °FOvercast.7 mph65%30.34 "Hg10 mi
4:51 pm39 °FOvercast.7 mph65%30.34 "Hg10 mi
3:51 pm39 °FOvercast.8 mph67%30.34 "Hg10 mi
2:51 pm40 °FMore clouds than sun.10 mph65%30.34 "Hg10 mi
1:51 pm40 °FOvercast.9 mph68%30.32 "Hg10 mi
12:51 pm40 °FMostly cloudy.10 mph65%30.30 "Hg10 mi
11:51 am39 °FOvercast.7 mph67%30.31 "Hg10 mi
Weather by CustomWeather, © 2016

See weather overviewHow to use our weather pages